[[{"header":{"parameterUnit":"m.s-1","parameterCategory":1,"la1":30.2991,"la2":30.254,"lo1":-89.0895,"lo2":-89.0444,"dy":0.0017,"dx":0.0017,"nx":28,"ny":28,"refTime":"2024-07-23T21:00:00:Z","depth":0,"parameterNumber":2,"parameterNumberName":"U-component_of_WINDS"},"data":[0,0,0,0,0,0,0,0,0,0,0,0,0,0,0,0,0,0,0,0,0,0,0,0,0,0,0,0,0,0,0,0,0,0,0,0,0,0,0,0,0,0,0,0,0,0,0,0,0,0,0,0,0,0,0,0,0,0,-0.0902,-0.0901,0,-0.0855,-0.0854,-0.0854,-0.0831,-0.0831,-0.0831,-0.0831,-0.0784,-0.0783,-0.0781,0,0,0,0,0,0,0,0,0,0,0,0,0,-0.0973,-0.0972,-0.0902,-0.0901,-0.09,-0.0855,-0.0854,-0.0854,-0.0831,-0.0831,-0.0831,-0.0831,-0.0784,-0.0783,-0.0781,0,0,0,0,0,0,0,0,0,0,0,0,0,-0.0936,-0.0972,-0.0902,-0.0884,-0.0881,-0.0855,-0.0854,-0.0854,-0.0831,-0.0831,-0.0831,-0.0831,-0.0785,-0.0783,-0.0781,-0.077,0,0,-0.0775,-0.0775,0,0,0,0,0,0,0,0,-0.0938,-0.0934,-0.0887,-0.0885,-0.0882,-0.0849,-0.0862,-0.0825,-0.0831,-0.085,-0.0831,-0.0831,-0.0805,-0.0802,-0.0793,-0.0767,-0.0765,-0.0775,-0.0774,-0.0773,-0.0773,0,0,0,0,0,0,0,-0.0941,-0.0935,-0.0883,-0.0886,-0.0883,-0.0879,-0.0873,-0.0855,-0.0828,-0.0848,-0.0847,-0.0841,-0.0804,-0.0795,-0.0792,-0.0765,-0.0775,-0.0774,-0.0772,-0.0772,-0.0729,-0.0729,0,0,0,0,0,0,-0.0946,-0.0938,-0.0885,-0.0882,-0.0911,-0.0877,-0.0871,-0.086,-0.0829,-0.0824,-0.0841,-0.084,-0.0798,-0.0794,-0.079,-0.0776,-0.0773,-0.0771,-0.077,-0.0729,-0.0729,-0.0729,0,0,0,0,0,0,-0.0948,-0.0942,-0.0887,-0.0909,-0.0902,-0.0876,-0.0863,-0.0859,-0.0849,-0.0823,-0.0818,-0.0837,-0.0798,-0.0793,-0.0775,-0.0774,-0.0771,-0.0769,-0.0729,-0.0729,-0.0729,-0.0746,0,0,0,0,0,0,-0.095,-0.0942,-0.0937,-0.0909,-0.0901,-0.0872,-0.0863,-0.0858,-0.0846,-0.0844,-0.0818,-0.0813,-0.0798,-0.0778,-0.0773,-0.0771,-0.0767,-0.0729,-0.0729,-0.0729,-0.0746,-0.0747,-0.0748,0,0,0,0,0,-0.0953,-0.0943,-0.0937,-0.093,-0.0893,-0.0872,-0.0867,-0.0849,-0.0846,-0.0841,-0.0825,-0.0814,-0.0775,-0.0777,-0.0771,-0.0768,-0.0729,-0.0729,-0.0729,-0.0745,-0.0747,-0.0748,0,0,0,0,0,0,-0.0971,-0.0939,-0.0932,-0.0913,-0.0895,-0.0868,-0.086,-0.0851,-0.0833,-0.0833,-0.0812,-0.0806,-0.0791,-0.0778,-0.078,-0.0757,-0.0751,-0.075,-0.0765,-0.0766,-0.0767,-0.0771,-0.0766,0,0,0,0,0,-0.0973,-0.0957,-0.0931,-0.0917,-0.0908,-0.0886,-0.0876,-0.0864,-0.0845,-0.0837,-0.0819,-0.0802,-0.0786,-0.0775,-0.0759,-0.0744,-0.0739,-0.074,-0.0741,-0.0742,-0.0741,-0.0734,-0.0734,-0.073,-0.073,-0.0729,0,0,-0.0977,-0.0957,-0.0949,-0.092,-0.0905,-0.089,-0.088,-0.0864,-0.0854,-0.0835,-0.0817,-0.0804,-0.0783,-0.0768,-0.076,-0.0756,-0.0741,-0.0742,-0.0743,-0.0741,-0.0734,-0.0734,-0.0735,-0.073,-0.073,-0.073,0,0,-0.0976,-0.0959,-0.0947,-0.0932,-0.091,-0.0895,-0.0893,-0.0867,-0.0858,-0.084,-0.0826,-0.0814,-0.0786,-0.0772,-0.0761,-0.0758,-0.0748,-0.0754,-0.0759,-0.0752,-0.0753,-0.0753,-0.0753,-0.0753,-0.0753,-0.0753,-0.0753,0,-0.0983,-0.096,-0.0941,-0.0927,-0.0916,-0.0899,-0.0887,-0.0874,-0.0847,-0.084,-0.0837,-0.0803,-0.0788,-0.0769,-0.0769,-0.076,-0.0757,-0.0756,-0.0754,-0.0754,-0.0754,-0.0754,-0.0753,-0.0754,-0.0754,-0.0754,-0.0754,0,-0.0971,-0.0955,-0.0948,-0.0923,-0.0911,-0.0897,-0.0878,-0.0868,-0.0858,-0.0845,-0.0828,-0.0809,-0.079,-0.0785,-0.0774,-0.0765,-0.0764,-0.0758,-0.0752,-0.0756,-0.0755,-0.0754,-0.0755,-0.0755,-0.0754,-0.0754,0,0,-0.0978,-0.0945,-0.0943,-0.0932,-0.0907,-0.0895,-0.0882,-0.0863,-0.0856,-0.0839,-0.0828,-0.0806,-0.0801,-0.0789,-0.0777,-0.0771,-0.0772,-0.0766,-0.0765,-0.0768,-0.0762,-0.0767,-0.0767,-0.0765,-0.0765,-0.0765,-0.0764,0,-0.0974,-0.0949,-0.0934,-0.0916,-0.0902,-0.0887,-0.0876,-0.086,-0.0848,-0.0835,-0.0822,-0.0807,-0.0801,-0.0794,-0.0787,-0.0773,-0.077,-0.0773,-0.0756,-0.0755,-0.0761,-0.0766,-0.0771,-0.0771,-0.0764,-0.0764,-0.0763,0,-0.0965,-0.0949,-0.093,-0.0909,-0.0902,-0.0892,-0.0875,-0.0863,-0.0845,-0.0837,-0.0825,-0.0813,-0.0801,-0.0797,-0.078,-0.0782,-0.0774,-0.0767,-0.0766,-0.0763,-0.0759,-0.0764,-0.077,-0.077,-0.0763,-0.0763,-0.0763,0,-0.0974,-0.0947,-0.0933,-0.0924,-0.0898,-0.0892,-0.0882,-0.0864,-0.0855,-0.084,-0.0833,-0.0817,-0.0808,-0.0797,-0.0782,-0.078,-0.0767,-0.0761,-0.076,-0.076,-0.0757,-0.0757,-0.0762,-0.0752,-0.0752,-0.0752,-0.0752,0,-0.097,-0.0959,-0.0936,-0.0927,-0.0915,-0.0898,-0.0887,-0.0875,-0.0861,-0.085,-0.0836,-0.0827,-0.0808,-0.0796,-0.0785,-0.0773,-0.0769,-0.0763,-0.076,-0.0764,-0.0765,-0.0758,-0.0758,-0.0752,-0.0752,-0.0752,-0.0752,0,-0.0977,-0.0961,-0.0944,-0.0922,-0.0917,-0.0909,-0.089,-0.0882,-0.087,-0.0857,-0.0853,-0.0834,-0.082,-0.0804,-0.0785,-0.0777,-0.0766,-0.0762,-0.0772,-0.077,-0.077,-0.0771,-0.0771,-0.077,-0.0761,-0.0761,-0.0762,0,-0.0976,-0.0967,-0.0945,-0.0937,-0.0926,-0.0913,-0.0904,-0.0888,-0.0879,-0.086,-0.0854,-0.0839,-0.0826,-0.0805,-0.079,-0.0776,-0.0771,-0.0772,-0.0769,-0.0774,-0.0772,-0.0772,-0.0772,-0.0773,-0.0773,-0.0773,-0.0773,0,-0.0976,-0.0969,-0.0955,-0.094,-0.0929,-0.0916,-0.0902,-0.0897,-0.0878,-0.0869,-0.0855,-0.0845,-0.0826,-0.0812,-0.0796,-0.0786,-0.0777,-0.0775,-0.0774,-0.0778,-0.0784,-0.0781,-0.0775,-0.0775,-0.0774,-0.0774,-0.0774,-0.0774,-0.0979,-0.0971,-0.0954,-0.094,-0.0929,-0.0917,-0.0909,-0.0896,-0.0884,-0.0867,-0.0859,-0.0845,-0.083,-0.0808,-0.0799,-0.0789,-0.0785,-0.0784,-0.0783,-0.0783,-0.0785,-0.0786,-0.0786,-0.0786,-0.0785,-0.0785,-0.0785,0,-0.0978,-0.0968,-0.0955,-0.0937,-0.0927,-0.092,-0.0905,-0.0897,-0.0885,-0.0871,-0.086,-0.0844,-0.0831,-0.0816,-0.0802,-0.0797,-0.0793,-0.0794,-0.0794,-0.0792,-0.0788,-0.079,-0.0798,-0.0798,-0.0798,-0.0798,-0.0798,-0.0798,-0.0977,-0.0964,-0.0956,-0.0938,-0.0927,-0.0913,-0.0906,-0.0895,-0.0885,-0.0869,-0.0858,-0.0848,-0.0835,-0.082,-0.0808,-0.0804,-0.08,-0.0803,-0.0798,-0.0794,-0.0792,-0.0791,-0.0794,-0.0802,-0.0802,-0.0803,-0.0803,-0.0803]},{"header":{"parameterUnit":"m.s-1","parameterCategory":1,"la1":30.2991,"la2":30.254,"lo1":-89.0895,"lo2":-89.0444,"dy":0.0017,"dx":0.0017,"nx":28,"ny":28,"refTime":"2024-07-23T21:00:00:Z","depth":0,"parameterNumber":3,"parameterNumberName":"V-component_of_WINDS"},"data":[0,0,0,0,0,0,0,0,0,0,0,0,0,0,0,0,0,0,0,0,0,0,0,0,0,0,0,0,0,0,0,0,0,0,0,0,0,0,0,0,0,0,0,0,0,0,0,0,0,0,0,0,0,0,0,0,0,0,4.7852,4.7852,0,4.784,4.784,4.784,4.7828,4.7828,4.7828,4.7828,4.7814,4.7813,4.7813,0,0,0,0,0,0,0,0,0,0,0,0,0,4.7864,4.7864,4.7852,4.7852,4.7852,4.784,4.784,4.784,4.7828,4.7828,4.7828,4.7828,4.7814,4.7813,4.7813,0,0,0,0,0,0,0,0,0,0,0,0,0,4.7856,4.7864,4.7852,4.7845,4.7844,4.784,4.784,4.784,4.7828,4.7828,4.7828,4.7828,4.7814,4.7813,4.7813,4.7815,0,0,4.7812,4.7812,0,0,0,0,0,0,0,0,4.7857,4.7856,4.7846,4.7845,4.7844,4.7836,4.7839,4.7832,4.7828,4.7834,4.7828,4.7827,4.7821,4.782,4.7818,4.7815,4.7814,4.7812,4.7812,4.7812,4.7812,0,0,0,0,0,0,0,4.7857,4.7856,4.7848,4.7846,4.7845,4.7842,4.784,4.7838,4.7829,4.7834,4.7833,4.7832,4.782,4.7819,4.7818,4.7814,4.7812,4.7812,4.7811,4.7811,4.7812,4.7812,0,0,0,0,0,0,4.7859,4.7857,4.7848,4.7847,4.785,4.7842,4.784,4.7839,4.7829,4.7827,4.7832,4.7831,4.7819,4.7818,4.7817,4.7819,4.7812,4.7811,4.7811,4.7811,4.7812,4.7812,0,0,0,0,0,0,4.786,4.7859,4.7848,4.7852,4.785,4.7842,4.784,4.7838,4.7837,4.7828,4.7826,4.7832,4.7819,4.7818,4.7816,4.7818,4.7811,4.7811,4.7811,4.7811,4.7812,4.7823,0,0,0,0,0,0,4.786,4.7859,4.786,4.7852,4.785,4.7848,4.784,4.7838,4.7836,4.7835,4.7827,4.7825,4.7819,4.7817,4.7816,4.7818,4.7811,4.7811,4.7811,4.7812,4.7822,4.7824,4.7825,0,0,0,0,0,4.786,4.7863,4.786,4.7859,4.7851,4.7848,4.7847,4.784,4.7836,4.7837,4.7831,4.7825,4.7819,4.7817,4.7815,4.7817,4.7811,4.7811,4.7812,4.7822,4.7823,4.7825,0,0,0,0,0,0,4.7871,4.7862,4.7858,4.7858,4.7854,4.7846,4.7847,4.7842,4.7838,4.7837,4.7828,4.7826,4.7826,4.7821,4.7819,4.7819,4.7814,4.7814,4.7822,4.7823,4.7825,4.7825,4.781,0,0,0,0,0,4.7873,4.7872,4.7864,4.7865,4.7863,4.7855,4.7854,4.7849,4.7844,4.7842,4.7836,4.7831,4.7827,4.7825,4.7822,4.7822,4.782,4.7823,4.7824,4.7825,4.7825,4.7825,4.7826,4.7814,4.7814,4.7814,0,0,4.7878,4.7873,4.7872,4.7867,4.7863,4.7861,4.7854,4.7852,4.7851,4.7841,4.7839,4.7835,4.7829,4.7828,4.7827,4.7824,4.7829,4.7826,4.7827,4.7826,4.7826,4.7827,4.7828,4.7814,4.7814,4.7814,0,0,4.7886,4.7882,4.7882,4.7879,4.7873,4.7868,4.7868,4.7861,4.7858,4.7856,4.7849,4.7847,4.7841,4.7837,4.7834,4.7841,4.7835,4.784,4.7846,4.7846,4.7847,4.7848,4.785,4.7851,4.784,4.784,4.784,0,4.7892,4.789,4.7883,4.7882,4.788,4.7872,4.7872,4.7869,4.7862,4.786,4.7857,4.785,4.7845,4.7844,4.7846,4.7844,4.7843,4.7841,4.7848,4.7849,4.7849,4.7851,4.7852,4.7841,4.7841,4.7841,4.7841,0,4.7898,4.7896,4.7897,4.7892,4.7889,4.7889,4.7882,4.788,4.7876,4.7871,4.7869,4.7864,4.7859,4.7858,4.7853,4.7856,4.7854,4.785,4.7844,4.7851,4.7853,4.7854,4.7842,4.7842,4.7842,4.7841,0,0,4.7911,4.7902,4.7903,4.79,4.7894,4.7892,4.7891,4.7887,4.7886,4.7882,4.7881,4.7876,4.7872,4.7869,4.7864,4.7864,4.787,4.786,4.7859,4.7861,4.7872,4.7875,4.7876,4.7866,4.7866,4.7866,4.7872,0,4.7917,4.7916,4.791,4.791,4.7909,4.7901,4.7901,4.7896,4.7892,4.789,4.7885,4.7882,4.7877,4.7875,4.7875,4.7869,4.7872,4.7869,4.7864,4.7864,4.7866,4.7877,4.788,4.7886,4.7873,4.7873,4.7873,0,4.7924,4.7921,4.7922,4.7915,4.7914,4.7914,4.791,4.7908,4.7903,4.79,4.7897,4.7891,4.7889,4.7885,4.7882,4.788,4.7878,4.7875,4.7875,4.7874,4.7869,4.7876,4.7888,4.7888,4.7874,4.7874,4.7874,0,4.7934,4.793,4.7929,4.7927,4.792,4.792,4.7917,4.7912,4.791,4.7906,4.7905,4.7901,4.7898,4.7895,4.7888,4.7886,4.7887,4.7881,4.7884,4.7884,4.7884,4.7884,4.7895,4.7883,4.7883,4.7883,4.7883,0,4.7942,4.7942,4.7934,4.7933,4.7933,4.7927,4.7927,4.7923,4.7919,4.7917,4.791,4.7909,4.7901,4.7898,4.7893,4.7892,4.7891,4.7888,4.7886,4.7888,4.7889,4.7886,4.7886,4.7883,4.7883,4.7883,4.7883,0,4.7952,4.7947,4.7946,4.7939,4.7937,4.7938,4.7932,4.7931,4.7927,4.7925,4.7924,4.7917,4.7914,4.7907,4.7902,4.7899,4.7898,4.7896,4.79,4.7899,4.7902,4.7902,4.7912,4.7913,4.7901,4.7901,4.7901,0,4.7957,4.7957,4.7951,4.795,4.7947,4.7945,4.7943,4.7937,4.7935,4.7929,4.7929,4.7926,4.7923,4.7918,4.7912,4.7908,4.7905,4.7909,4.7905,4.7906,4.7905,4.7905,4.7905,4.791,4.791,4.791,4.791,0,4.7966,4.7964,4.7962,4.7959,4.7957,4.7954,4.795,4.795,4.7942,4.794,4.7938,4.7935,4.793,4.7927,4.7922,4.7918,4.7913,4.7912,4.7912,4.7914,4.7916,4.7915,4.7903,4.7912,4.7912,4.7912,4.7911,4.7911,4.7974,4.7974,4.797,4.7967,4.7964,4.7961,4.7961,4.7956,4.7954,4.795,4.7946,4.7943,4.7938,4.7932,4.7928,4.7926,4.7923,4.7924,4.7924,4.7924,4.7925,4.7917,4.7925,4.7925,4.7925,4.7925,4.7925,0,4.7983,4.798,4.7978,4.7974,4.7972,4.7968,4.7964,4.7963,4.7961,4.7957,4.7954,4.7951,4.7947,4.7941,4.7938,4.7937,4.7934,4.7936,4.7936,4.7935,4.7927,4.7927,4.7938,4.7938,4.7938,4.7938,4.7938,4.7938,4.7988,4.7987,4.7984,4.7982,4.7979,4.7977,4.7975,4.7972,4.7969,4.7966,4.7963,4.7959,4.7954,4.795,4.7947,4.7945,4.7944,4.7946,4.7944,4.7937,4.7935,4.7934,4.7934,4.7946,4.7946,4.7951,4.7951,4.7952]}]]